Location: Home
(42.5358°N, 72.7383°W)
Time: 11:56:15
(UTC-05:00)

Transit 4A - Pass Details

Date: 02 December 2021
Orbit: 864 x 981 km, 66.8° (Epoch: 19 January)

Event Time Altitude Azimuth Distance (km) Brightness Sun altitude
Rises 03:02:43 0° 335° (NNW) 3,600 - -43.4°
Reaches altitude 10° 03:05:38 10° 347° (NNW) 2,672 - -42.9°
Maximum altitude 03:10:56 28° 45° (NE) 1,720 - -41.9°
Exits shadow 03:12:09 26° 64° (ENE) 1,789 9.7 -41.7°
Drops below altitude 10° 03:16:18 10° 103° (ESE) 2,715 10.9 -40.9°
Sets 03:19:16 0° 115° (ESE) 3,668 11.7 -40.4°
